Weather History for Cincinnati, OH

Change the Weather History Date:

Sunday, July 7, 2013

  Actual Average Record
Temperature  
Mean Temperature 73 °F -  
Max Temperature 82 °F 86 °F 104 °F (2012)
Min Temperature 64 °F 64 °F 52 °F (1972)
Cooling Degree Days 8    
Growing Degree Days 23 (Base 50)    
Moisture  
Dew Point 67 °F    
Average Humidity 86    
Maximum Humidity 100    
Minimum Humidity 56    
Precipitation  
Precipitation 0.01 in - - ()
Sea Level Pressure  
Sea Level Pressure 30.10 in    
Wind  
Wind Speed 2 mph (SSW)    
Max Wind Speed 9 mph    
Max Gust Speed -    
Visibility 10 miles    
Events      
Averages and records for this station are not official NWS values.
T = Trace of Precipitation, MM = Missing Value Source: NWS Daily Summary

Daily Weather History Graph

Daily Weather History Graph

Search for Another Location

Airport:

Trip Planner

Search our weather history database for the weather conditions in past years. The results will help you decide how hot, cold, wet, or windy it might be!

Date:

Astronomy

Jul. 07, 2013 Rise Set
Actual Time 6:18 AM EDT 9:06 PM EDT
Civil Twilight 5:47 AM EDT 9:37 PM EDT
Nautical Twilight 5:07 AM EDT 10:17 PM EDT
Astronomical Twilight 4:21 AM EDT 11:03 PM EDT
Moon 5:53 AM EDT (7/7) 8:30 PM EDT (7/7)
Length of Visible Light 15h 50m
Length of Day
14h 47m
Waning Crescent, 0% of the Moon is Illuminated
Jul 7
Waning Crescent
Jul 8
New
Jul 15
First Quarter
Jul 22
Full
Jul 29
Last Quarter

Hourly Weather History & Observations

Time (EDT) Temp. Heat Index Dew Point Humidity Pressure Visibility Wind Dir Wind Speed Gust Speed Precip Events Conditions
12:35 AM 66.2 °F - 66.2 °F 100% 30.12 in 10.0 mi SSW 3.5 mph - N/A   Mostly Cloudy
12:53 AM 66.9 °F - 66.0 °F 97% 30.10 in 10.0 mi Calm Calm - N/A   Mostly Cloudy
1:07 AM 66.2 °F - 66.2 °F 100% 30.11 in 10.0 mi Calm Calm - N/A   Scattered Clouds
1:18 AM 66.2 °F - 66.2 °F 100% 30.11 in 10.0 mi Calm Calm - N/A   Scattered Clouds
1:53 AM 66.0 °F - 66.0 °F 100% 30.10 in 10.0 mi Calm Calm - N/A   Partly Cloudy
2:53 AM 66.0 °F - 66.0 °F 100% 30.09 in 9.0 mi Calm Calm - N/A   Clear
3:27 AM 66.2 °F - 66.2 °F 100% 30.10 in 10.0 mi Calm Calm - N/A   Mostly Cloudy
3:53 AM 66.0 °F - 66.0 °F 100% 30.09 in 10.0 mi Calm Calm - N/A   Overcast
4:25 AM 66.2 °F - 66.2 °F 100% 30.10 in 10.0 mi Calm Calm - N/A   Scattered Clouds
4:53 AM 66.0 °F - 64.9 °F 96% 30.08 in 9.0 mi Calm Calm - N/A   Partly Cloudy
5:53 AM 66.0 °F - 66.0 °F 100% 30.09 in 9.0 mi Calm Calm - N/A   Partly Cloudy
6:02 AM 66.2 °F - 66.2 °F 100% 30.10 in 10.0 mi Calm Calm - N/A   Scattered Clouds
6:14 AM 64.4 °F - 64.4 °F 100% 30.10 in 9.0 mi Calm Calm - N/A   Mostly Cloudy
6:45 AM 66.2 °F - 66.2 °F 100% 30.10 in 10.0 mi Calm Calm - N/A   Overcast
6:53 AM 66.9 °F - 66.0 °F 97% 30.09 in 10.0 mi Calm Calm - N/A   Overcast
7:53 AM 68.0 °F - 66.9 °F 96% 30.11 in 7.0 mi Calm Calm - N/A   Mostly Cloudy
8:53 AM 69.1 °F - 66.9 °F 93% 30.12 in 10.0 mi South 4.6 mph - N/A   Overcast
9:05 AM 69.8 °F - 66.2 °F 88% 30.13 in 9.0 mi South 4.6 mph - N/A   Overcast
9:53 AM 70.0 °F - 66.9 °F 90% 30.13 in 10.0 mi SSW 5.8 mph - N/A   Overcast
10:34 AM 71.6 °F - 68.0 °F 88% 30.14 in 10.0 mi South 4.6 mph - N/A   Overcast
10:53 AM 71.1 °F - 66.9 °F 87% 30.13 in 10.0 mi Calm Calm - N/A   Overcast
11:12 AM 73.4 °F - 68.0 °F 83% 30.13 in 10.0 mi South 5.8 mph - N/A   Overcast
11:23 AM 73.4 °F - 66.2 °F 78% 30.13 in 10.0 mi SSW 3.5 mph - N/A   Unknown
11:53 AM 73.9 °F - 68.0 °F 82% 30.12 in 10.0 mi SSE 4.6 mph - 0.01 in   Unknown
12:36 PM 77.0 °F - 68.0 °F 74% 30.13 in 10.0 mi Variable 3.5 mph - N/A   Mostly Cloudy
12:53 PM 77.0 °F - 68.0 °F 74% 30.11 in 10.0 mi SSW 3.5 mph - N/A   Mostly Cloudy
1:53 PM 79.0 °F - 66.9 °F 66% 30.10 in 10.0 mi Calm Calm - N/A   Mostly Cloudy
2:53 PM 80.1 °F 82.3 °F 66.9 °F 64% 30.08 in 10.0 mi SSE 5.8 mph - N/A   Mostly Cloudy
3:53 PM 80.1 °F 82.1 °F 66.0 °F 62% 30.07 in 10.0 mi Calm Calm - N/A   Mostly Cloudy
4:00 PM 80.6 °F 82.7 °F 66.2 °F 61% 30.08 in 10.0 mi Variable 4.6 mph - N/A   Mostly Cloudy
4:53 PM 82.9 °F 85.0 °F 66.0 °F 56% 30.05 in 10.0 mi SW 5.8 mph - N/A   Scattered Clouds
5:53 PM 82.9 °F 85.0 °F 66.0 °F 56% 30.04 in 10.0 mi SW 4.6 mph - N/A   Mostly Cloudy
6:53 PM 81.0 °F 83.3 °F 66.9 °F 62% 30.04 in 10.0 mi WSW 9.2 mph - N/A   Mostly Cloudy
7:53 PM 80.1 °F 82.1 °F 66.0 °F 62% 30.05 in 10.0 mi WSW 5.8 mph - N/A   Clear
8:53 PM 75.0 °F - 66.9 °F 76% 30.06 in 10.0 mi SW 5.8 mph - N/A   Clear
9:53 PM 70.0 °F - 68.0 °F 93% 30.08 in 10.0 mi Calm Calm - N/A   Clear
10:53 PM 69.1 °F - 68.0 °F 96% 30.10 in 9.0 mi Calm Calm - N/A   Clear
11:53 PM 68.0 °F - 66.9 °F 96% 30.10 in 7.0 mi Calm Calm - N/A   Clear